Weather in Samuylovo

Russia / Smolensk Oblast     55°45′57″N   35°01′05″E
В апреле 2022 года жителям России запретили посещать сайт meteo.paraplan.net по решению Генеральной прокуратуры. Аудитория сайта уменьшилась в 10 раз. Владельцы сайта не видят смысла в поддержке погодного сервера в таких условиях. Сайт будет закрыт в октябре.
temp.,
°C
wind,
m/s
gust,
m/s
humid.,
%
clouds,
%
prec.,
mm/h
press.,
hPa
HPBL,
m
30 september, fri
fri3000:00+9s4128693 0.0 1011380
03:00+8s4128992 0.0 1012318
06:00+8sse399097 0.0 1012259
09:00+9s41191100 0.5 1012483
12:00+10s3896100 4.3 1013317
15:00+11ssw269887 6.2 1014318
18:00+11sw229798 0.0 101568
21:00+9w1197100 0.0 101611
1 october, sat
sat100:00+9sw1194100 0.0 101610
03:00+8n1193100 0.0 101711
06:00+7ene2294100 0.0 101629
09:00+10e2491100 0.0 1015162
12:00+11e3792100 0.0 1013290
15:00+12e3997100 1.8 1010341
18:00+13se41094100 0.9 1007344
21:00+12ssw51195100 1.8 1005495
2 october, sun
sun200:00+9sw61192100 0.4 1006779
03:00+8wsw61195100 0.4 1005695
06:00+7wsw61095100 0.1 1007724
09:00+8w4794100 0.2 1008713
12:00+8w3590100 0.1 1008543
15:00+9nw2384100 0.1 1008556
18:00+8nne2492100 0.0 1008221
21:00+7nne2695100 0.0 1007257
3 october, mon
mon300:00+7nne4896100 1.5 1005449
03:00+7nne41097100 8.3 1002620
06:00+7n41097100 8.1 999691
09:00+7n51096100 13.9 997656
12:00+7nw51096100 2.8 995534
15:00+6wnw51096100 8.4 995575
18:00+6w5995100 1.7 997756
21:00+5wsw5897100 2.6 1000923
4 october, tue
tue400:00+5wsw4897100 0.9 1001900
03:00+5ssw51192100 2.0 1003675
06:00+4ssw512945 0.0 1005483
09:00+6ssw5109394 0.0 1007507
12:00+8ssw41095100 0.1 1008682
15:00+9ssw598899 0.7 1010824
18:00+8s4994100 0.3 1011422
21:00+8s389897 0.6 1012309